TimeCDT,TemperatureF,Dew PointF,Humidity,Sea Level PressureIn,VisibilityMPH,Wind Direction,Wind SpeedMPH,Gust SpeedMPH,PrecipitationIn,Events,Conditions,WindDirDegrees,DateUTC
12:12 AM,77.4,64.6,65,29.89,10.0,Calm,Calm,-,N/A,,Clear,0,2013-09-07 05:12:00
12:32 AM,77.7,64.4,63,29.89,10.0,Calm,Calm,-,N/A,,Scattered Clouds,0,2013-09-07 05:32:00
12:52 AM,76.6,64.6,66,29.89,10.0,Calm,Calm,-,N/A,,Clear,0,2013-09-07 05:52:00
1:12 AM,77.5,63.5,62,29.89,10.0,South,3.5,-,N/A,,Clear,190,2013-09-07 06:12:00
1:32 AM,77.7,63.5,61,29.89,10.0,South,3.5,-,N/A,,Clear,170,2013-09-07 06:32:00
1:52 AM,77.4,63.3,62,29.88,10.0,SSE,3.5,-,N/A,,Clear,160,2013-09-07 06:52:00
2:12 AM,76.6,63.1,63,29.88,10.0,Calm,Calm,-,N/A,,Clear,0,2013-09-07 07:12:00
2:32 AM,76.5,63.0,63,29.88,10.0,Calm,Calm,-,N/A,,Clear,0,2013-09-07 07:32:00
2:52 AM,75.6,63.9,67,29.88,10.0,SSE,3.5,-,N/A,,Clear,150,2013-09-07 07:52:00
3:12 AM,75.6,63.5,66,29.87,10.0,Calm,Calm,-,N/A,,Clear,0,2013-09-07 08:12:00
3:32 AM,75.4,63.5,66,29.87,10.0,Calm,Calm,-,N/A,,Clear,0,2013-09-07 08:32:00
3:52 AM,75.2,63.7,67,29.87,10.0,Calm,Calm,-,N/A,,Clear,0,2013-09-07 08:52:00
4:12 AM,74.7,63.9,69,29.87,10.0,SSE,3.5,-,N/A,,Clear,160,2013-09-07 09:12:00
4:32 AM,73.4,64.2,73,29.87,10.0,Calm,Calm,-,N/A,,Clear,0,2013-09-07 09:32:00
4:52 AM,73.8,63.9,71,29.87,10.0,Calm,Calm,-,N/A,,Clear,0,2013-09-07 09:52:00
5:12 AM,72.7,63.9,74,29.87,10.0,Calm,Calm,-,N/A,,Clear,0,2013-09-07 10:12:00
5:32 AM,72.5,64.4,76,29.86,10.0,Calm,Calm,-,N/A,,Clear,0,2013-09-07 10:32:00
5:52 AM,71.8,64.6,78,29.87,10.0,Calm,Calm,-,N/A,,Clear,0,2013-09-07 10:52:00
6:12 AM,71.8,64.9,79,29.87,10.0,Calm,Calm,-,N/A,,Clear,0,2013-09-07 11:12:00
6:32 AM,71.6,64.8,79,29.88,10.0,Calm,Calm,-,N/A,,Clear,0,2013-09-07 11:32:00
6:52 AM,71.1,64.9,81,29.89,10.0,Calm,Calm,-,N/A,,Clear,0,2013-09-07 11:52:00
7:12 AM,71.1,65.8,84,29.89,10.0,Calm,Calm,-,N/A,,Clear,0,2013-09-07 12:12:00
7:32 AM,71.8,66.2,83,29.89,10.0,Calm,Calm,-,N/A,,Clear,0,2013-09-07 12:32:00
7:52 AM,73.2,66.4,79,29.90,10.0,Calm,Calm,-,N/A,,Clear,0,2013-09-07 12:52:00
8:12 AM,75.0,66.2,74,29.90,10.0,Calm,Calm,-,N/A,,Clear,0,2013-09-07 13:12:00
8:32 AM,76.3,67.1,73,29.90,10.0,Calm,Calm,-,N/A,,Clear,0,2013-09-07 13:32:00
8:52 AM,77.9,67.1,69,29.90,10.0,Calm,Calm,-,N/A,,Clear,0,2013-09-07 13:52:00
9:12 AM,78.3,67.3,69,29.90,10.0,Calm,Calm,-,N/A,,Clear,0,2013-09-07 14:12:00
9:32 AM,79.2,67.5,67,29.91,10.0,North,4.6,-,N/A,,Clear,10,2013-09-07 14:32:00
9:52 AM,80.6,68.0,65,29.91,10.0,NNE,3.5,-,N/A,,Clear,30,2013-09-07 14:52:00
10:12 AM,81.5,68.4,64,29.91,10.0,ENE,3.5,-,N/A,,Clear,60,2013-09-07 15:12:00
10:32 AM,82.9,68.9,62,29.92,7.0,Calm,Calm,-,N/A,,Clear,0,2013-09-07 15:32:00
10:52 AM,85.3,68.4,57,29.91,7.0,East,5.8,-,N/A,,Clear,80,2013-09-07 15:52:00
11:12 AM,86.0,67.1,53,29.92,10.0,East,5.8,-,N/A,,Clear,80,2013-09-07 16:12:00
11:32 AM,87.4,67.3,51,29.92,7.0,NNE,5.8,-,N/A,,Clear,30,2013-09-07 16:32:00
11:52 AM,88.0,67.3,50,29.92,5.0,East,5.8,-,N/A,,Haze,80,2013-09-07 16:52:00
12:12 PM,89.1,67.3,48,29.92,10.0,NE,5.8,-,N/A,,Clear,40,2013-09-07 17:12:00
12:32 PM,90.1,67.8,48,29.92,7.0,NE,4.6,-,N/A,,Clear,50,2013-09-07 17:32:00
12:52 PM,90.1,67.3,47,29.91,7.0,NNE,6.9,-,N/A,,Clear,20,2013-09-07 17:52:00
1:12 PM,91.4,66.6,44,29.90,10.0,NNE,10.4,-,N/A,,Clear,20,2013-09-07 18:12:00
1:32 PM,92.1,66.2,42,29.91,10.0,NE,10.4,-,N/A,,Clear,40,2013-09-07 18:32:00
1:52 PM,92.8,66.0,41,29.91,10.0,NNE,8.1,-,N/A,,Clear,30,2013-09-07 18:52:00
2:12 PM,93.2,65.3,40,29.91,10.0,NE,9.2,-,N/A,,Clear,40,2013-09-07 19:12:00
2:32 PM,93.7,63.3,36,29.90,10.0,ENE,9.2,-,N/A,,Clear,60,2013-09-07 19:32:00
2:52 PM,93.6,62.4,35,29.90,10.0,NE,10.4,17.3,N/A,,Clear,50,2013-09-07 19:52:00
3:12 PM,94.6,60.8,32,29.90,10.0,NE,9.2,-,N/A,,Clear,50,2013-09-07 20:12:00
3:32 PM,95.0,59.5,31,29.90,10.0,East,12.7,17.3,N/A,,Clear,80,2013-09-07 20:32:00
3:52 PM,93.4,59.0,32,29.90,10.0,NNE,11.5,-,N/A,,Clear,30,2013-09-07 20:52:00
4:12 PM,93.0,58.6,31,29.90,10.0,NE,10.4,-,N/A,,Clear,50,2013-09-07 21:12:00
4:32 PM,93.6,60.6,33,29.90,10.0,NNE,9.2,-,N/A,,Clear,20,2013-09-07 21:32:00
4:52 PM,93.6,60.8,33,29.90,10.0,NNE,6.9,-,N/A,,Clear,30,2013-09-07 21:52:00
5:12 PM,93.4,60.8,34,29.91,10.0,ENE,8.1,16.1,N/A,,Clear,60,2013-09-07 22:12:00
5:32 PM,93.2,61.5,35,29.91,10.0,NE,10.4,-,N/A,,Clear,40,2013-09-07 22:32:00
5:52 PM,93.0,61.5,35,29.92,10.0,NE,9.2,-,N/A,,Clear,40,2013-09-07 22:52:00
6:12 PM,92.1,61.3,36,29.92,10.0,NE,9.2,-,N/A,,Clear,50,2013-09-07 23:12:00
6:32 PM,91.4,62.8,38,29.93,10.0,NE,6.9,-,N/A,,Clear,40,2013-09-07 23:32:00
6:52 PM,90.7,63.5,40,29.93,10.0,NE,5.8,-,N/A,,Clear,50,2013-09-07 23:52:00
7:12 PM,89.6,64.2,43,29.93,10.0,NE,4.6,-,N/A,,Clear,50,2013-09-08 00:12:00
7:32 PM,88.9,64.4,44,29.94,10.0,NNE,4.6,-,N/A,,Clear,20,2013-09-08 00:32:00
7:52 PM,87.8,65.3,47,29.95,10.0,NNE,4.6,-,N/A,,Scattered Clouds,30,2013-09-08 00:52:00
8:12 PM,86.5,65.5,49,29.95,10.0,NE,4.6,-,N/A,,Scattered Clouds,40,2013-09-08 01:12:00
8:32 PM,85.3,65.3,51,29.96,10.0,ENE,8.1,-,N/A,,Clear,60,2013-09-08 01:32:00
8:52 PM,83.7,65.3,54,29.97,10.0,ENE,8.1,16.1,N/A,,Clear,60,2013-09-08 01:52:00
9:12 PM,82.4,65.7,57,29.98,10.0,NE,10.4,-,N/A,,Clear,50,2013-09-08 02:12:00
9:32 PM,80.6,66.0,61,29.98,10.0,NE,8.1,17.3,N/A,,Clear,50,2013-09-08 02:32:00
9:52 PM,79.0,63.7,59,30.00,10.0,NE,9.2,-,N/A,,Clear,40,2013-09-08 02:52:00
10:12 PM,77.9,63.5,61,30.00,10.0,North,6.9,17.3,N/A,,Clear,360,2013-09-08 03:12:00
10:32 PM,76.5,62.6,62,30.01,10.0,North,5.8,-,N/A,,Clear,10,2013-09-08 03:32:00
10:52 PM,75.2,62.6,65,30.01,10.0,NE,5.8,-,N/A,,Clear,50,2013-09-08 03:52:00
11:12 PM,74.5,62.6,66,30.02,10.0,ENE,4.6,-,N/A,,Clear,60,2013-09-08 04:12:00
11:32 PM,73.8,62.8,68,30.02,10.0,ENE,8.1,-,N/A,,Clear,60,2013-09-08 04:32:00
11:52 PM,73.0,62.6,70,30.02,10.0,ENE,8.1,-,N/A,,Clear,60,2013-09-08 04:52:00